Regional Weather Roundup
Issued by NWS

Home | Current Version | Previous Version | Graphics & Text | Print | Product List | Glossary On
Versions: 1 2 3 4 5 6 7 8 9 10 11 12 13 14 15 16 17 18 19 20 21 22 23 24 25 26 27 28 29 30 31 32 33 34 35 36 37 38 39 40 41 42 43 44 45 46 47 48 49 50
000
ASUS45 KCYS 251210
RWRWY

WYOMING REGIONAL WEATHER ROUNDUP
NATIONAL WEATHER SERVICE CHEYENNE WY
600 AM MDT SAT MAR 25 2017

NOTE:  "FAIR" INDICATES FEW OR NO CLOUDS BELOW 12,000 FEET
WITH NO SIGNIFICANT WEATHER AND/OR OBSTRUCTIONS TO VISIBILITY.

WYZ001-251300-
YELLOWSTONE NATIONAL PARK

CITY           SKY/WX    TMP DP  RH WIND       PRES   REMARKS
LK YELLOWSTONE   N/A     30  30 100 CALM      30.03S
6HR MIN TEMP:  30; 6HR MAX TEMP:  31; 6HR PCP:  0.05;

W YELLOWSTONE  NOT AVBL

$$
WYZ002>013-054>058-071-098>099-251300-
NORTHERN WYOMING

CITY           SKY/WX    TMP DP  RH WIND       PRES   REMARKS
JACKSON        CLOUDY    34  34 100 SW7       30.04S WCI  28
CODY           FAIR      46  28  49 W8        29.93S
GREYBULL       FAIR      43  32  65 E7        29.91R
6HR MIN TEMP:  41; 6HR MAX TEMP:  51;

WORLAND        FAIR      37  35  92 SE5       29.91R WCI  33
6HR MIN TEMP:  36; 6HR MAX TEMP:  48;

SHERIDAN       FAIR      41  35  79 N3        29.88R
6HR MIN TEMP:  40; 6HR MAX TEMP:  46; 6HR PCP: TRACE;

BUFFALO        FAIR      49  23  36 NW9       29.90R
6HR MIN TEMP:  46; 6HR MAX TEMP:  54;

GILLETTE       FAIR      47  32  56 SW12      29.89R
6HR MIN TEMP:  42; 6HR MAX TEMP:  47;

HULETT         FAIR      46  28  49 SW8       29.91R
NEWCASTLE      FAIR      41  27  56 SE12G20   29.95F

$$
WYZ014>020-022>026-101>103-251300-
CENTRAL WYOMING

CITY           SKY/WX    TMP DP  RH WIND       PRES   REMARKS
BIG PINEY      CLOUDY    31  29  92 E3        30.04F
6HR MIN TEMP:  29; 6HR MAX TEMP:  37;

PINEDALE       CLOUDY    32  30  93 CALM      30.06S
DUBOIS         CLOUDY    36  27  69 N12G17    30.00R WCI  27
LANDER         FAIR      39  26  59 W6        29.94S WCI  35
6HR MIN TEMP:  39; 6HR MAX TEMP:  52;

RIVERTON       FAIR      38  30  73 NW9       29.96R WCI  31
6HR MIN TEMP:  37; 6HR MAX TEMP:  46;

CASPER         FAIR      43  26  51 SW9       29.97R
6HR MIN TEMP:  42; 6HR MAX TEMP:  48;

DOUGLAS        FAIR      34  27  75 CALM      29.96R
6HR MIN TEMP:  33; 6HR MAX TEMP:  39;


$$
WYZ021-027>030-104>119-251300-
SOUTHERN WYOMING

CITY           SKY/WX    TMP DP  RH WIND       PRES   REMARKS
EVANSTON       FAIR      37  20  50 CALM      30.02F
6HR MIN TEMP:  35; 6HR MAX TEMP:  40;

KEMMERER         N/A     32  27  80 N7        30.04S WCI  26
FORT BRIDGER   FAIR      38  31  74 CALM      30.06S
ROCK SPRINGS   FAIR      36  29  75 E3        30.03F
6HR MIN TEMP:  36; 6HR MAX TEMP:  42;

DIXON            N/A     32  24  72 E3        30.11F
RAWLINS        FAIR      41  24  51 SW7       30.04F
6HR MIN TEMP:  35; 6HR MAX TEMP:  43;

SARATOGA       FAIR      36  23  60 S8        30.08S WCI  29
LARAMIE        FAIR      33  21  61 CALM      30.06R
6HR MIN TEMP:  24; 6HR MAX TEMP:  38;

CHEYENNE       FAIR      32  26  78 S10       30.03R WCI  24
6HR MIN TEMP:  28; 6HR MAX TEMP:  33;

TORRINGTON     FAIR      31  26  82 E6        29.99S WCI  25
6HR MIN TEMP:  28; 6HR MAX TEMP:  36;

PINE BLUFFS    FAIR      23  21  93 SW8       30.04F WCI  14

$$



USA.gov is the U.S. government's official web portal to all federal, state and local government web resources and services.